Retour au catalogue

DELTA 1 DEB

ActifLEO
NORAD 40759·DEBRIS·🇺🇸 United States

Lancé Jul 29, 1976 depuis Vandenberg Space Force Base

Loading…

Prochains Passages (prochaines 24 heures)

TLE

PériméSource: Space-Track

Époque: Sep 3, 2026, 12:25 UTC

1 40759U 76077GC  26246.51771433  .00000004  00000-0  23445-3 0  9998
2 40759 102.1265 356.0167 0292872 167.0528 193.8277 12.66507707994922

Suivez DELTA 1 DEB en temps réel avec AllMySat

Download on the App Store